This is the latest recevied weather packets stored in our database for station/object KE0LFX. If no packets are shown the sender has not sent any weather packets the latest 10 day(s).
| Time | Temp. | Humidity | Pressure | Rain* | Wind** | Luminosity | Snow |
|---|---|---|---|---|---|---|---|
| 1778016972 | 15° C | 39% | 1013.5 hPa | 0 mm | - | 94 W/m² | - |
| 1778016668 | 15° C | 39% | 1013.3 hPa | 0 mm | - | 110 W/m² | - |
| 1778016364 | 15° C | 37% | 1013.4 hPa | 0 mm | - | 130 W/m² | - |
| 1778016062 | 15° C | 36% | 1013.4 hPa | 0 mm | - | 142 W/m² | - |
| 1778015759 | 15° C | 39% | 1013.4 hPa | 0 mm | - | 157 W/m² | - |
| 1778015456 | 15° C | 38% | 1013.5 hPa | 0 mm | - | 192 W/m² | - |
| 1778015152 | 15° C | 37% | 1013.6 hPa | 0 mm | - | 164 W/m² | - |
| 1778014850 | 15° C | 37% | 1013.8 hPa | 0 mm | - | 158 W/m² | - |
| 1778014547 | 15.56° C | 39% | 1013.8 hPa | 0 mm | - | 207 W/m² | - |
| 1778014244 | 15° C | 37% | 1013.8 hPa | 0 mm | - | 321 W/m² | - |
| 1778013942 | 14.44° C | 38% | 1013.7 hPa | 0 mm | - | 239 W/m² | - |
| 1778013639 | 14.44° C | 37% | 1014 hPa | 0 mm | - | 256 W/m² | - |
| 1778013335 | 14.44° C | 37% | 1014 hPa | 0 mm | - | 294 W/m² | - |
| 1778013033 | 15° C | 39% | 1014.2 hPa | 0 mm | - | 259 W/m² | - |
| 1778012729 | 15° C | 39% | 1014.1 hPa | 0 mm | - | 348 W/m² | - |
| 1778012424 | 14.44° C | 40% | 1013.9 hPa | 0 mm | - | 290 W/m² | - |
| 1778012122 | 14.44° C | 39% | 1014 hPa | 0 mm | - | 255 W/m² | - |
| 1778011819 | 15° C | 38% | 1014.2 hPa | 0 mm | - | 273 W/m² | - |
| 1778011517 | 14.44° C | 41% | 1014.3 hPa | 0 mm | - | 325 W/m² | - |
| 1778011214 | 13.89° C | 39% | 1014.3 hPa | 0 mm | - | 385 W/m² | - |
| 1778010910 | 13.89° C | 39% | 1014.5 hPa | 0 mm | - | 233 W/m² | - |
| 1778010607 | 14.44° C | 39% | 1014.5 hPa | 0 mm | - | 231 W/m² | - |
| 1778010305 | 13.89° C | 39% | 1014.4 hPa | 0 mm | - | 224 W/m² | - |
| 1778010004 | 13.89° C | 39% | 1014.3 hPa | 0 mm | - | 225 W/m² | - |
| 1778009702 | 14.44° C | 39% | 1014.6 hPa | 0 mm | - | 269 W/m² | - |
* Rain latest hour (hover to see other rain measurements)
** Current wind speed in m/s (hover to see current wind gust speed)